G4MHJ-1 Weather Reports


time (UTC)temp
C
wind
direction
speed
KPH
gust
KPH
rain 1hr
cm
rain 24hr
cm
rain mn
cm
humidity
%
barometer
mb
20260510112305 12 32 8.0 29.0 0.00 0.00 0.00 73 1017.0
20260510102305 12 44 8.0 22.5 0.00 0.00 0.00 73 1017.1
20260510092301 12 55 8.0 30.6 0.00 0.00 0.00 74 1017.2
20260510082302 11 15 8.0 25.7 0.00 0.00 0.00 76 1017.7
20260510072305 10 21 8.0 25.7 0.00 0.00 0.00 83 1017.5
20260510052300 9 63 6.4 22.5 0.00 0.00 0.00 90 1017.2
20260510042305 9 54 6.4 17.7 0.00 0.00 0.00 91 1017.2
20260510032301 9 42 8.0 19.3 0.00 0.00 0.00 92 1017.7
20260510022301 8 0 8.0 17.7 0.00 0.00 0.00 90 1017.6
20260510012301 10 53 6.4 14.5 0.00 0.00 0.00 86 1017.8
20260510002301 10 36 4.8 12.9 0.00 0.00 0.00 79 1017.7
20260509232306 11 40 3.2 11.3 0.00 0.00 0.00 80 1017.9
20260509222301 11 48 3.2 9.7 0.00 0.00 0.00 72 1017.8
20260509212305 12 32 1.6 8.0 0.00 0.00 0.00 64 1017.7
20260509202306 13 46 0.0 9.7 0.00 0.00 0.00 57 1017.3
20260509192300 14 58 1.6 8.0 0.00 0.00 0.00 57 1016.8
20260509182300 16 119 1.6 11.3 0.00 0.00 0.00 52 1016.9
20260509172259 17 110 1.6 11.3 0.00 0.00 0.00 51 1016.5
20260509162259 18 78 4.8 14.5 0.00 0.00 0.00 45 1016.7
20260509152259 20 0 3.2 16.1 0.00 0.00 0.00 45 1016.9
20260509142300 20 215 1.6 12.9 0.00 0.00 0.00 49 1016.3
20260509132313 20 38 4.8 14.5 0.00 0.00 0.00 47 1016.6
20260509122306 20 105 3.2 16.1 0.00 0.00 0.00 47 1017.1